Startseite
Über Mich
AHP4
Galerie
Sehschlangen
Tourenbuch
Bookmarks
Elektronik
Bewertung
Geschichten
[Tagesmessung] [Jahreswerte] [Information]

Messwerte vom 28.01.2022

Die letzten Messwerte von 23:58:44 Uhr:
KategorieMesswert
Temperatur [°C]3
Luftdruck [mBar]1011
Sonneneinstrahlung0
Wind [km/h]1 aus Süd
Niederschlag [l/m²]0
rel.Luftfeucht.90.4%
CO2 [ppm]872

Diagramme
Messwerte vom 28.01.2022
Tagesaggregation
KategorieMinimumMaximumSchnittSumme
Temperatur [°C]293.8646
Luftdruck [mBar]100210151010.0208
Sonneneinstrahlung24172.4146
Wind [km/h]40
rF [%]62.996.689.54
Niederschlag [l/m²]0.2575
CO2 [ppm]404907587.3
Einordnung alsKalter Tag

Messungen an benachbarten Tagen: Zur Jahresaggregation 2022
Tabelle aller Messwerte
UhrzeitTemperatur [°C]Luftdruck [mBar]SonneWind [km/h]RichtungRegen [l/m²]rF [%]CO2 [ppm]
00:01:49 4 1002 0 7 SW 0 96.6 507
00:04:48 4 1002 0 11 SW 0 96.6 506
00:07:47 4 1002 0 8 SW 0 96.6 513
00:10:47 4 1002 0 9 W 0 96.6 512
00:13:48 4 1002 0 8 W 0 96.6 506
00:16:46 4 1002 0 3 S 0 96.6 500
00:19:49 4 1002 0 22 NW 0 96.6 497
00:22:48 4 1002 0 14 NW 0 96.6 500
00:25:48 4 1002 0 14 W 0 96.6 499
00:28:48 4 1002 0 16 W 0 96.6 494
00:31:47 4 1002 0 3 S 0 96.6 497
00:34:49 4 1002 0 8 SO 0 96.6 501
00:37:46 4 1002 0 20 W 0 96.6 504
00:40:48 4 1002 0 5 W 0 96.6 507
00:43:47 4 1002 0 6 SW 0 96.6 498
00:46:46 4 1002 0 7 W 0 96.6 492
00:49:48 4 1003 0 17 W 0 96.6 478
00:52:48 4 1002 0 11 SW 0 96.6 483
00:55:48 4 1002 0 8 NW 0 96.6 483
00:58:46 3 1002 0 9 W 0 96.6 483
01:01:49 3 1002 0 5 SW 0 96.6 480
01:04:45 3 1002 0 4 S 0 96.6 483
01:07:47 4 1002 0 9 SW 0 96.6 486
01:10:48 4 1003 0 11 SW 0 96.6 486
01:13:46 4 1003 0 14 W 0 96.6 487
01:16:45 4 1002 0 5 O 0 96.6 480
01:19:48 4 1003 0 4 SW 0 96.6 485
01:22:45 4 1003 0 10 0 96.6 477
01:25:48 4 1003 0 8 W 0 96.6 478
01:28:47 4 1003 0 10 SW 0 96.6 478
01:31:48 4 1003 0 14 NW 0 96.6 485
01:34:47 4 1002 0 19 W 0 96.6 486
01:37:49 4 1003 0 8 W 0 96.6 486
01:40:45 4 1003 0 8 W 0 96.6 480
01:43:45 4 1002 0 14 S 0 96.6 469
01:46:46 4 1004 0 14 SW 0 96.6 468
01:49:47 4 1003 0 10 W 0 96.6 466
01:52:45 4 1003 0 9 W 0 96.6 471
01:55:46 4 1004 0 7 SW 0 96.6 462
01:58:46 4 1003 0 3 W 0 96.6 466
02:01:46 4 1003 0 11 W 0 96.6 466
02:04:44 4 1004 0 4 O 0 96.6 471
02:07:47 4 1004 0 8 W 0 96.6 469
02:10:47 4 1003 0 4 O 0 96.6 472
02:13:47 4 1004 0 15 SW 0 96.6 477
02:16:48 4 1003 0 8 SW 0 96.6 471
02:19:48 4 1003 0 16 SW 0 96.6 468
02:22:46 4 1004 0 12 W 0 96.6 466
02:25:48 4 1004 0 8 NO 0 96.6 469
02:28:48 4 1004 0 16 S 0 96.6 468
02:31:47 4 1004 0 11 W 0 96.6 472
02:34:46 4 1004 0 7 SW 0 96.6 468
02:37:48 4 1004 0 14 S 0 96.6 466
02:40:49 4 1004 0 7 SW 0 96.6 465
02:43:47 4 1004 0 9 W 0 96.6 466
02:46:49 4 1003 0 28 NW 0 96.6 462
02:49:47 4 1004 0 13 SW 0 96.5 460
02:52:47 4 1004 0 7 SO 0 96.4 462
02:55:46 4 1004 0 15 W 0 96.6 459
02:58:47 4 1005 0 10 W 0 96.5 460
03:01:48 4 1004 0 8 W 0 96.4 462
03:04:46 4 1004 0 18 W 0 96.3 466
03:07:46 3 1004 0 13 S 0 96.2 468
03:10:46 3 1004 0 6 W 0 96.3 468
03:13:48 3 1004 0 10 W 0 96.6 468
03:16:46 3 1005 0 14 SW 0 96.6 471
03:19:46 3 1004 0 40 SW 0 96.5 465
03:22:47 4 1005 0 9 NW 0 96.6 457
03:25:47 4 1004 0 14 SO 0 96.6 452
03:28:48 4 1004 0 16 NW 0 96.6 462
03:31:46 4 1005 0 7 W 0 96.6 468
03:34:46 4 1005 0 12 W 0 96.6 466
03:37:50 4 1005 0 10 NW 0 96.6 465
03:40:45 4 1005 0 7 SW 0 96.6 462
03:43:49 4 1004 0 12 SW 0 96.5 466
03:46:47 4 1004 0 16 SO 0 96.4 463
03:49:49 4 1005 0 6 N 0 96.2 459
03:52:46 4 1005 0 8 W 0 95.8 462
03:55:48 4 1005 0 13 SW 0 95.6 468
03:58:49 4 1005 0 13 SW 0 95.5 466
04:01:49 4 1005 0 21 W 0 95.6 460
04:04:47 4 1005 0 5 SW 0 95.8 456
04:07:46 4 1005 0 5 SW 0 96.1 456
04:10:47 4 1005 0 7 SO 0 96 453
04:13:48 4 1005 0 14 SW 0 95.7 445
04:16:47 4 1005 0 7 SW 0 95.5 442
04:19:48 4 1005 0 12 S 0 95.5 445
04:22:48 4 1005 0 6 NO 0 95.5 445
04:25:44 4 1006 0 13 O 0 95.4 451
04:28:47 4 1005 0 10 SW 0 95 453
04:31:47 4 1006 0 6 SW 0 95.2 454
04:34:45 4 1006 0 17 W 0 94.7 451
04:37:47 4 1006 0 15 S 0 94.6 450
04:40:49 4 1006 0 11 NW 0 94.6 448
04:43:46 4 1006 0 8 W 0 94.5 448
04:46:45 4 1006 0 4 W 0 94.5 448
04:49:50 3 1006 0 10 NW 0 94.5 452
04:52:46 3 1006 0 8 W 0 94.6 454
04:55:48 3 1006 0 8 NW 0 94.7 448
04:58:46 3 1006 0 4 S 0 94.6 445
05:01:46 3 1006 0 18 0 94.8 442
05:04:48 3 1006 0 5 SW 0 95.2 450
05:07:46 3 1006 0 5 S 0 95.6 459
05:10:48 3 1006 0 16 W 0 95.8 453
05:13:46 3 1006 0 11 SO 0 95.8 454
05:16:46 3 1006 0 9 W 0 95.7 450
05:19:48 3 1006 0 11 NW 0 95.7 454
05:22:49 3 1006 0 10 W 0 95.9 454
05:25:47 3 1006 0 9 SW 0 96.1 454
05:28:46 3 1006 0 8 W 0 96.5 459
05:31:51 3 1006 0 6 S 0 96.6 462
05:34:47 3 1006 0 10 SW 0 96.6 471
05:37:45 3 1006 0 6 SW 0 96.6 457
05:40:49 3 1006 0 3 SW 0 96.6 459
05:43:46 3 1006 0 6 W 0 96.6 451
05:46:47 3 1006 0 9 W 0 96.6 454
05:49:51 3 1006 0 10 NW 0 96.6 462
05:52:47 3 1006 0 11 N 0 96.6 466
05:55:46 3 1006 0 16 SW 0 96.6 468
05:58:49 3 1006 0 7 SW 0 96.6 468
06:01:47 3 1006 0 8 S 0 96.6 462
06:04:47 3 1006 0 15 W 0 96.6 451
06:07:49 3 1006 0 9 SW 0 96.6 448
06:10:46 3 1007 0 7 S 0 96.6 453
06:13:47 3 1006 0 14 W 0 96.6 462
06:16:49 3 1007 0 10 SW 0 96.6 459
06:19:48 3 1007 0 8 SW 0 96.6 463
06:22:49 3 1006 0 6 S 0 96.6 455
06:25:47 3 1006 0 11 SW 0 96.6 459
06:28:48 3 1006 0 5 SW 0 96.5 449
06:31:46 3 1007 0 6 W 0 96.4 454
06:34:47 3 1007 0 10 NW 0 96.4 462
06:37:49 3 1006 0 8 SW 0 96.6 480
06:40:48 3 1006 0 6 W 0 96.6 489
06:43:50 3 1006 0 7 NW 0 96.6 480
06:46:49 3 1007 0 14 NW 0 96.6 465
06:49:47 3 1007 0 5 S 0 96.6 454
06:52:45 3 1007 0 13 W 0 96.6 454
06:55:47 3 1007 0 5 O 0 96.6 475
06:58:47 3 1006 0 6 NW 0 96.6 495
07:01:48 3 1007 0 11 W 0 96.6 497
07:04:46 3 1007 0 10 W 0 96.6 483
07:07:46 3 1008 0 7 SW 0 96.6 477
07:10:46 3 1007 0 12 W 0 96.3 474
07:13:48 3 1007 0 10 NW 0 95.7 463
07:16:46 3 1008 0 11 W 0 95.5 469
07:19:47 3 1008 0 6 SW 0 95.5 480
07:22:46 3 1008 0 17 W 0 95.6 495
07:25:47 3 1009 0 18 W 0 95.6 502
07:28:45 3 1008 0 7 W 0 95.7 513
07:31:47 3 1008 0 11 SW 0 95.8 526
07:34:50 3 1009 0 7 NW 0 95.9 527
07:37:46 3 1009 0 9 NW 0 96.1 524
07:40:46 3 1009 4 7 O 0 96.1 526
07:43:46 3 1009 7 11 W 0 96.3 531
07:46:47 3 1009 9 20 W 0 96.5 540
07:49:49 3 1009 15 9 NW 0 96.6 544
07:52:48 3 1009 22 6 SW 0 96.6 550
07:55:48 3 1009 31 10 SW 0 96.6 542
07:58:47 3 1009 41 11 W 0 96.6 530
08:01:48 3 1009 52 5 W 0 96.6 538
08:04:47 3 1009 61 13 SW 0 96.6 545
08:07:52 3 1009 68 5 NW 0 96.6 550
08:10:49 3 1009 72 14 NW 0 96.6 544
08:13:48 3 1009 83 12 W 0 96.6 538
08:16:48 3 1009 94 11 SO 0 96.6 538
08:19:49 3 1009 100 7 NW 0 96.6 527
08:22:49 3 1009 100 6 W 0 96.6 518
08:25:50 3 1010 95 5 SW 0 96.6 520
08:28:48 3 1009 98 11 SW 0 96.6 518
08:31:48 3 1009 113 6 W 0 96.6 512
08:34:51 3 1009 131 14 NW 0 96.6 512
08:37:50 3 1010 134 19 NW 0 96.6 518
08:40:49 3 1009 90 8 W 0 96.6 535
08:43:47 3 1010 101 8 W 0 96.6 539
08:46:49 3 1009 118 7 NW 0 96.6 535
08:49:48 3 1010 129 9 NW 0 96.6 530
08:52:48 3 1009 111 14 NW 0 96.6 538
08:55:50 2 1010 126 12 NW 0.2575 96.6 536
08:58:50 2 1010 148 11 SO 0 96.6 530
09:01:48 2 1010 165 15 NW 0 96.6 533
09:04:48 2 1010 172 19 W 0 96.6 530
09:07:49 2 1010 167 9 NW 0 96.6 521
09:10:47 2 1010 162 9 NW 0 96.6 518
09:13:49 3 1010 157 10 SW 0 96.6 521
09:16:48 3 1009 159 4 NW 0 96.6 523
09:19:47 3 1010 164 7 NW 0 96.6 532
09:22:48 3 1010 162 4 N 0 96.6 527
09:25:50 3 1010 163 8 W 0 96.6 529
09:28:51 3 1010 157 3 S 0 96.6 530
09:31:44 3 1010 160 5 W 0 96.6 541
09:34:50 3 1010 158 6 S 0 96.6 547
09:37:48 3 1010 163 5 SW 0 96.6 547
09:40:50 3 1010 166 10 NW 0 96.6 544
09:43:47 3 1010 173 4 W 0 96.6 541
09:46:45 3 1010 162 7 S 0 96.6 544
09:49:52 3 1010 162 4 S 0 96.6 548
09:52:49 3 1010 162 8 NW 0 96.6 556
09:55:50 3 1010 172 6 NW 0 96.6 565
09:58:47 3 1010 176 3 SO 0 96.6 562
10:01:50 3 1010 180 9 NW 0 96.6 556
10:04:49 3 1010 176 5 NW 0 96.6 559
10:07:47 3 1010 182 3 SW 0 96.6 564
10:10:48 3 1010 186 3 SO 0 96.6 565
10:13:47 3 1010 190 14 SW 0 96.6 559
10:16:47 3 1011 178 6 SW 0 96.6 545
10:19:49 3 1010 181 17 W 0 96.6 527
10:22:48 3 1010 194 9 NW 0 96.6 527
10:25:52 3 1011 196 7 SO 0 96.6 538
10:28:46 3 1011 196 4 S 0 96.6 545
10:31:49 4 1010 198 6 SW 0 96.6 544
10:34:48 4 1012 201 11 W 0 96.6 548
10:37:46 4 1012 203 4 NW 0 96.6 559
10:40:49 4 1011 202 3 W 0 96.6 571
10:43:49 4 1011 204 6 W 0 96.6 571
10:46:50 4 1011 204 12 W 0 96.3 582
10:49:49 4 1012 207 5 NW 0 96.1 588
10:52:47 4 1011 208 5 SW 0 95.8 598
10:55:47 4 1012 205 3 SW 0 95.8 597
10:58:48 4 1012 204 9 W 0 95 600
11:01:47 4 1013 202 5 0 94.1 594
11:04:50 4 1012 206 12 SW 0 93.8 595
11:07:47 4 1011 206 8 SW 0 93.5 597
11:10:48 4 1012 208 8 W 0 93 595
11:13:47 4 1012 207 10 SW 0 92.4 573
11:16:48 4 1012 205 10 W 0 92.1 570
11:19:49 4 1012 207 21 NW 0 89.2 571
11:22:46 4 1013 209 12 SW 0 89.2 581
11:25:49 5 1013 206 7 W 0 89.9 594
11:28:47 5 1012 210 11 W 0 89.4 609
11:31:48 5 1013 210 20 W 0 88.9 620
11:34:49 5 1013 208 14 NW 0 89.2 632
11:37:49 4 1012 206 13 NW 0 86.8 640
11:40:48 5 1013 208 11 W 0 86.7 648
11:43:48 5 1012 211 15 W 0 86.4 652
11:46:46 5 1012 209 15 W 0 84.8 650
11:49:46 5 1013 210 7 W 0 85.1 655
11:52:50 5 1013 215 9 SO 0 86.5 664
11:55:49 5 1013 210 7 NW 0 85.9 662
11:58:49 5 1013 205 10 NW 0 87.1 664
12:01:51 5 1013 209 6 NW 0 85.2 665
12:04:49 5 1012 203 9 W 0 84.7 671
12:07:49 5 1012 208 7 NW 0 83.3 670
12:10:47 6 1012 207 18 SW 0 81.4 679
12:13:47 6 1013 205 11 W 0 78.7 679
12:16:48 6 1012 206 10 N 0 77.7 688
12:19:47 6 1012 206 15 W 0 78.4 691
12:22:49 6 1012 207 12 SO 0 75.5 686
12:25:47 6 1012 207 9 SW 0 75.2 674
12:28:49 6 1012 207 16 NW 0 76.4 672
12:31:49 6 1013 210 26 NW 0 74.3 664
12:34:49 6 1012 209 15 NW 0 73.1 690
12:37:49 6 1013 209 16 NW 0 73.2 700
12:40:51 6 1012 209 7 NW 0 73.2 715
12:43:46 6 1012 210 17 W 0 73.6 710
12:46:49 6 1013 204 7 NW 0 72.7 697
12:49:48 7 1013 212 9 SW 0 73.4 685
12:52:49 7 1013 216 5 NW 0 72.6 677
12:55:50 7 1013 217 19 NW 0 72.6 676
12:58:48 7 1012 217 11 NW 0 72.5 687
13:01:48 7 1012 218 14 W 0 71.8 694
13:04:47 7 1013 220 11 W 0 72.3 683
13:07:46 7 1012 219 17 W 0 71.7 676
13:10:49 7 1013 221 18 W 0 71.3 685
13:13:49 7 1013 223 4 NW 0 69.9 694
13:16:45 7 1013 209 11 W 0 70 702
13:19:46 7 1013 222 7 W 0 71.7 721
13:22:46 7 1013 219 7 W 0 73.6 728
13:25:32 6 1013 210 13 W 0 62.9 721
13:28:46 7 1013 225 10 W 0 71.8 720
13:31:49 8 1013 197 6 SW 0 73.6 729
13:34:46 8 1013 226 10 W 0 73.2 529
13:37:46 8 1013 226 8 W 0 72.2 547
13:40:47 9 1013 225 3 S 0 70.1 550
13:43:49 9 1013 228 2 W 0 70.2 544
13:46:47 8 1013 228 9 W 0 67.8 552
13:49:48 8 1013 228 8 N 0 68.3 576
13:52:47 8 1013 229 16 W 0 69.5 556
13:55:47 8 1013 227 4 SW 0 71.3 534
13:58:46 8 1013 227 4 O 0 70.9 532
14:01:49 8 1013 228 8 NW 0 70.1 531
14:04:47 8 1013 230 6 W 0 68.9 538
14:07:48 8 1013 219 14 SW 0 69.5 542
14:10:47 7 1013 216 5 S 0 68.4 541
14:13:48 7 1013 223 11 SW 0 69.3 538
14:16:46 7 1013 234 4 W 0 70.4 539
14:19:48 7 1013 240 8 NW 0 71.2 541
14:22:44 7 1013 241 11 W 0 71.9 553
14:25:48 7 1013 240 13 NW 0 70.4 565
14:28:46 7 1013 238 6 W 0 70.3 579
14:31:45 7 1013 224 5 O 0 70.1 571
14:34:51 7 1013 227 11 NW 0 70.9 556
14:37:49 7 1013 229 7 SW 0 70.1 556
14:40:48 6 1013 222 8 NW 0 71.1 556
14:43:48 6 1013 224 9 NO 0 71.5 556
14:46:46 6 1013 224 17 NW 0 71.2 547
14:49:48 6 1013 229 4 W 0 72.2 539
14:52:46 6 1013 238 11 W 0 72.1 544
14:55:48 6 1013 233 16 SW 0 71.6 536
14:58:46 6 1013 233 18 W 0 71 536
15:01:47 6 1013 235 22 SW 0 71.3 530
15:04:47 6 1013 236 13 O 0 71.4 539
15:07:47 6 1013 233 3 NW 0 71.9 552
15:10:51 6 1013 236 13 W 0 72.2 554
15:13:49 6 1013 236 16 NW 0 72.4 559
15:16:48 6 1013 237 9 W 0 73.1 559
15:19:48 6 1013 232 13 W 0 73.4 562
15:22:46 6 1013 224 13 W 0 73.5 567
15:25:48 6 1013 230 9 W 0 72.9 568
15:28:47 6 1013 234 15 S 0 72.5 568
15:31:46 6 1013 237 11 W 0 73.1 570
15:34:49 6 1013 238 6 SO 0 73.8 565
15:37:49 6 1013 239 10 W 0 74.2 571
15:40:46 6 1013 236 3 W 0 74.3 565
15:43:47 5 1013 229 6 W 0 75.2 565
15:46:47 5 1013 216 8 NW 0 74.9 563
15:49:48 5 1013 214 15 W 0 75.3 556
15:52:45 5 1013 168 4 W 0 74.7 478
15:55:48 5 1013 158 4 SW 0 75.8 407
15:58:49 5 1013 204 0 SW 0 77.1 407
16:01:47 5 1013 203 1 S 0 77.9 407
16:04:49 5 1014 198 3 W 0 78.8 434
16:07:48 5 1014 198 7 SO 0 79.5 436
16:10:45 5 1013 197 2 0 79.7 454
16:13:45 5 1013 201 2 S 0 80.1 433
16:16:47 5 1013 201 4 SW 0 80.4 415
16:19:47 4 1013 195 5 W 0 80.8 410
16:22:50 4 1014 188 0 NO 0 81.3 406
16:25:45 4 1014 177 5 0 81.6 404
16:28:51 4 1013 171 1 SW 0 82 407
16:31:45 4 1013 171 0 O 0 82.1 404
16:34:48 4 1013 170 2 SW 0 82.6 404
16:37:46 4 1013 165 3 SW 0 83.1 407
16:40:47 4 1013 160 2 W 0 83.6 407
16:43:48 4 1014 151 3 SW 0 83.8 404
16:46:48 4 1013 141 4 W 0 84.2 407
16:49:48 4 1014 129 5 SW 0 84.4 407
16:52:47 4 1014 113 3 SW 0 84.4 416
16:55:49 4 1014 100 6 W 0 84.4 418
16:58:47 4 1014 86 3 NW 0 84.6 421
17:01:47 4 1014 71 5 NW 0 84.8 415
17:04:46 3 1014 58 1 SW 0 85.1 418
17:07:45 3 1014 47 1 SW 0 85.6 421
17:10:47 3 1014 37 2 W 0 85.9 425
17:13:46 3 1013 27 0 S 0 86.1 431
17:16:46 3 1014 19 3 S 0 86.3 442
17:19:47 3 1014 12 0 W 0 86.6 443
17:22:45 3 1014 8 2 W 0 86.8 450
17:25:45 3 1014 5 0 W 0 87.3 456
17:28:47 3 1014 3 1 SW 0 87.7 475
17:31:48 2 1014 0 2 SW 0 88 559
17:34:46 2 1014 0 3 W 0 88.2 577
17:37:46 2 1014 0 2 SW 0 88.5 514
17:40:47 2 1014 0 2 S 0 88.9 510
17:43:48 2 1014 0 3 W 0 89 512
17:46:48 2 1014 0 2 SW 0 89.1 507
17:49:47 2 1014 0 2 W 0 89.1 506
17:52:47 2 1015 0 3 W 0 89.1 501
17:55:47 2 1014 0 2 W 0 89.1 515
17:58:45 2 1014 0 2 SO 0 89.2 515
18:01:49 2 1015 0 4 SW 0 89.5 521
18:04:46 2 1014 0 1 S 0 89.6 536
18:07:47 2 1013 0 2 W 0 89.8 553
18:10:50 2 1015 0 0 SW 0 89.8 571
18:13:48 2 1015 0 2 S 0 89.9 578
18:16:54 2 1014 0 0 O 0 90 582
18:19:46 2 1015 0 0 SO 0 90.1 589
18:22:46 3 1014 0 1 S 0 90.2 592
18:25:47 3 1015 0 0 S 0 90.1 597
18:28:48 3 1014 0 5 SW 0 89.9 610
18:31:46 3 1014 0 0 S 0 89.8 625
18:34:45 3 1014 0 2 S 0 89.8 641
18:37:46 3 1015 0 2 S 0 90 647
18:40:47 3 1014 0 0 SW 0 90.1 656
18:43:47 3 1015 0 1 NW 0 90.1 652
18:46:48 3 1014 0 1 SW 0 90.1 662
18:49:47 3 1014 0 0 NW 0 90.1 667
18:52:45 3 1015 0 1 W 0 90.2 667
18:55:46 3 1014 0 0 S 0 90.4 660
18:58:47 3 1014 0 3 NW 0 90.5 660
19:01:45 3 1014 0 1 SO 0 90.4 664
19:04:46 3 1014 0 0 O 0 90.2 678
19:07:47 3 1014 0 1 S 0 90 685
19:10:46 3 1013 0 0 NW 0 90 700
19:13:47 3 1014 0 0 SW 0 89.6 708
19:16:46 3 1014 0 1 NW 0 89.6 708
19:19:45 3 1014 0 1 SO 0 89.6 710
19:22:47 3 1014 0 0 O 0 89.5 705
19:25:45 3 1014 0 4 S 0 89.6 715
19:28:48 3 1014 0 2 SW 0 89.6 722
19:31:46 3 1014 0 5 SW 0 89.5 725
19:34:49 3 1014 0 4 NW 0 89.5 723
19:37:48 3 1014 0 6 W 0 89.4 726
19:40:47 3 1014 0 6 SW 0 89.3 731
19:43:45 3 1014 0 5 S 0 89.2 746
19:46:47 3 1014 0 8 SW 0 89 759
19:49:46 3 1014 0 4 SW 0 88.7 764
19:52:45 3 1014 0 8 W 0 88.5 766
19:55:47 3 1014 0 6 W 0 88.5 758
19:58:46 3 1013 0 3 W 0 88.6 758
20:01:46 3 1014 0 3 S 0 88.4 761
20:04:46 3 1014 0 3 S 0 88.2 767
20:07:46 3 1014 0 4 W 0 88.2 776
20:10:47 3 1013 0 3 SW 0 88.2 779
20:13:47 3 1014 0 6 S 0 88.4 783
20:16:48 3 1013 0 7 W 0 88.5 792
20:19:46 3 1013 0 5 S 0 88.7 796
20:22:48 3 1013 0 4 SW 0 88.8 805
20:25:48 3 1013 0 1 SW 0 89 800
20:28:46 3 1014 0 2 W 0 89.1 808
20:31:48 3 1013 0 5 S 0 89.2 809
20:34:47 3 1013 0 4 NW 0 89.4 810
20:37:47 3 1014 0 4 SW 0 89.6 814
20:40:47 3 1013 0 2 S 0 89.8 820
20:43:47 3 1013 0 1 S 0 90 812
20:46:45 3 1013 0 3 W 0 90.1 820
20:49:47 3 1014 0 5 S 0 90.2 820
20:52:46 3 1013 0 2 S 0 90.3 826
20:55:49 3 1013 0 1 NO 0 90.3 823
20:58:46 3 1013 0 0 S 0 90.4 850
21:01:46 3 1013 0 1 S 0 90.4 840
21:04:47 3 1013 0 0 NW 0 90.6 849
21:07:49 3 1013 0 0 NW 0 90.6 866
21:10:51 3 1013 0 7 NO 0 90.5 879
21:13:49 3 1013 0 2 SO 0 90.4 881
21:16:45 3 1013 0 2 O 0 90.1 880
21:19:47 3 1013 0 0 SW 0 90.1 843
21:22:46 3 1013 0 2 S 0 90 847
21:25:48 3 1013 0 4 SW 0 89.8 855
21:28:47 3 1013 0 4 SO 0 89.5 849
21:31:46 3 1013 0 3 SW 0 89.3 852
21:34:46 3 1013 0 3 SW 0 89.1 864
21:37:46 3 1013 0 2 S 0 89.1 861
21:40:48 3 1013 0 0 NW 0 89.1 865
21:43:48 3 1013 0 1 S 0 89.3 857
21:46:47 3 1013 0 1 SW 0 89.5 863
21:49:47 3 1013 0 4 SO 0 89.7 862
21:52:45 3 1013 0 1 0 90 860
21:55:48 3 1013 0 1 SW 0 90 858
21:58:47 3 1013 0 0 SW 0 90 858
22:01:47 3 1013 0 0 NO 0 90.1 856
22:04:49 3 1013 0 2 NO 0 90.1 854
22:07:47 3 1013 0 0 SW 0 90.1 858
22:10:48 3 1013 0 0 SW 0 90.1 870
22:13:47 3 1013 0 1 SO 0 90.1 872
22:16:47 3 1013 0 2 SO 0 90.1 875
22:19:47 3 1013 0 0 NW 0 90.1 873
22:22:48 3 1013 0 2 NW 0 90 869
22:25:46 3 1013 0 0 S 0 89.9 875
22:28:46 3 1013 0 2 SW 0 89.8 879
22:31:47 3 1013 0 1 SO 0 89.7 879
22:34:45 3 1013 0 2 W 0 89.7 889
22:37:49 3 1013 0 0 SW 0 89.7 885
22:40:47 3 1013 0 4 S 0 89.9 888
22:43:48 3 1013 0 3 SW 0 90 882
22:46:48 3 1013 0 0 W 0 90 887
22:49:47 3 1013 0 0 W 0 90.1 875
22:52:47 3 1013 0 1 SO 0 90.2 887
22:55:47 3 1013 0 3 SW 0 90.4 896
22:58:48 3 1013 0 1 S 0 90.5 907
23:01:46 3 1013 0 2 S 0 90.6 899
23:04:46 3 1013 0 1 S 0 90.6 903
23:07:51 3 1012 0 6 W 0 90.7 896
23:10:48 3 1012 0 1 NW 0 90.7 893
23:13:45 3 1013 0 3 0 90.7 880
23:16:47 3 1012 0 3 SW 0 90.8 879
23:19:47 3 1012 0 3 S 0 90.8 873
23:22:51 3 1013 0 3 SW 0 90.8 884
23:25:49 3 1012 0 1 S 0 90.8 883
23:28:49 3 1013 0 2 O 0 90.9 888
23:31:49 3 1012 0 2 S 0 90.8 888
23:34:47 3 1012 0 3 SO 0 90.7 878
23:37:48 3 1012 0 1 S 0 90.7 875
23:40:48 3 1012 0 3 SO 0 90.6 876
23:43:47 3 1012 0 2 NO 0 90.4 879
23:46:48 3 1011 0 1 S 0 90.3 884
23:49:47 3 1012 0 1 SW 0 90.3 870
23:52:48 3 1012 0 1 SO 0 90.3 869
23:55:48 3 1012 0 0 SW 0 90.3 870
23:58:44 3 1011 0 1 S 0 90.4 872

Letzte Änderung : 04-Jan-2022
Copyright Jens Köhler, Wolfsburg, Obere Dorfstraße 10d